Skip navigation

Daily Weather Reports

[Select Refresh to Update]


Yesterday's Data File


4/30/16
Time

Wind Dir
 

Wind Spd
mph

Wind Gust
mph

Hum In
%

Humidity
%

Temp In
 F

Temp
 F

Raw Barom
in

Tot Rain
in

DailyRain
in

HourRain
in

24HrRain
in

RainRate
in/hr
12:00am 199 0 3 34 77 76.8 57.1 29.91 11.52 0.00 0.00 0.00 0.000
12:01am 199 0 1 34 77 76.8 57.1 29.91 11.52 0.00 0.00 0.00 0.000
12:02am 199 0 3 34 77 76.8 57.1 29.91 11.52 0.00 0.00 0.00 0.000
12:03am 199 0 3 34 77 76.8 57.1 29.91 11.52 0.00 0.00 0.00 0.000
12:04am 199 0 3 34 77 76.8 57.1 29.91 11.52 0.00 0.00 0.00 0.000
12:05am 199 0 3 34 77 76.8 57.1 29.91 11.52 0.00 0.00 0.00 0.000
12:06am 199 0 3 34 77 76.8 57.1 29.91 11.52 0.00 0.00 0.00 0.000
12:07am 199 0 3 34 77 76.8 57.1 29.91 11.52 0.00 0.00 0.00 0.000
12:08am 199 0 3 34 77 76.8 57.1 29.91 11.52 0.00 0.00 0.00 0.000
12:09am 199 0 3 34 77 76.8 57.1 29.91 11.52 0.00 0.00 0.00 0.000
12:10am 199 0 3 34 77 76.8 57.0 29.91 11.52 0.00 0.00 0.00 0.000
12:11am 199 1 3 34 77 76.8 57.0 29.91 11.52 0.00 0.00 0.00 0.000
12:12am 199 0 3 34 77 76.6 57.1 29.91 11.52 0.00 0.00 0.00 0.000
12:13am 199 0 3 34 77 76.6 57.1 29.91 11.52 0.00 0.00 0.00 0.000
12:14am 199 1 3 34 77 76.6 57.1 29.91 11.52 0.00 0.00 0.00 0.000
12:15am 199 0 3 34 77 76.6 57.1 29.91 11.52 0.00 0.00 0.00 0.000
12:16am 199 0 1 34 77 76.6 57.1 29.91 11.52 0.00 0.00 0.00 0.000
12:17am 199 0 1 34 77 76.6 57.1 29.91 11.52 0.00 0.00 0.00 0.000
12:18am 199 2 2 34 77 76.6 57.1 29.91 11.52 0.00 0.00 0.00 0.000
12:19am 199 4 4 34 77 76.6 57.1 29.91 11.52 0.00 0.00 0.00 0.000
12:20am 199 1 4 34 77 76.6 57.1 29.91 11.52 0.00 0.00 0.00 0.000
12:21am 199 1 4 34 77 76.6 57.1 29.91 11.52 0.00 0.00 0.00 0.000
12:22am 199 1 4 34 77 76.6 57.0 29.91 11.52 0.00 0.00 0.00 0.000
12:23am 199 3 4 34 77 76.6 57.1 29.91 11.52 0.00 0.00 0.00 0.000
12:24am 199 3 4 34 77 76.6 57.0 29.91 11.52 0.00 0.00 0.00 0.000
12:25am 199 2 4 34 77 76.6 57.0 29.91 11.52 0.00 0.00 0.00 0.000
12:26am 199 3 4 34 77 76.6 57.0 29.91 11.52 0.00 0.00 0.00 0.000
12:27am 199 2 4 34 77 76.6 57.0 29.91 11.52 0.00 0.00 0.00 0.000
12:28am 199 1 4 34 77 76.5 57.0 29.91 11.52 0.00 0.00 0.00 0.000
12:29am 209 4 6 34 77 76.5 57.0 29.91 11.52 0.00 0.00 0.00 0.000
12:30am 209 3 7 34 77 76.5 57.0 29.91 11.52 0.00 0.00 0.00 0.000
12:31am 201 3 6 34 77 76.5 57.0 29.91 11.52 0.00 0.00 0.00 0.000
12:32am 208 3 6 34 77 76.5 57.0 29.91 11.52 0.00 0.00 0.00 0.000
12:33am 201 4 6 34 78 76.5 57.0 29.91 11.52 0.00 0.00 0.00 0.000
12:34am 193 5 6 34 78 76.5 56.9 29.91 11.52 0.00 0.00 0.00 0.000
12:35am 211 2 6 34 78 76.5 56.9 29.91 11.52 0.00 0.00 0.00 0.000
12:36am 203 3 6 34 78 76.5 56.9 29.91 11.52 0.00 0.00 0.00 0.000
12:37am 202 0 6 34 78 76.5 56.9 29.91 11.52 0.00 0.00 0.00 0.000
12:38am 202 0 6 34 78 76.5 56.9 29.91 11.52 0.00 0.00 0.00 0.000
12:38am 203 0 6 34 78 76.5 56.9 29.91 11.52 0.00 0.00 0.00 0.000
12:40am 203 0 6 34 78 76.5 56.8 29.91 11.52 0.00 0.00 0.00 0.000
12:40am 203 1 6 34 78 76.5 56.8 29.91 11.52 0.00 0.00 0.00 0.000
12:42am 203 1 6 34 78 76.5 56.8 29.91 11.52 0.00 0.00 0.00 0.000
12:43am 199 3 6 34 78 76.5 56.8 29.91 11.52 0.00 0.00 0.00 0.000
12:44am 199 2 6 34 78 76.5 56.8 29.91 11.52 0.00 0.00 0.00 0.000
12:45am 198 0 6 34 78 76.5 56.7 29.91 11.52 0.00 0.00 0.00 0.000
12:46am 199 3 4 34 78 76.5 56.7 29.91 11.52 0.00 0.00 0.00 0.000
12:47am 199 4 5 34 78 76.5 56.7 29.91 11.52 0.00 0.00 0.00 0.000
12:48am 199 3 5 34 78 76.5 56.7 29.91 11.52 0.00 0.00 0.00 0.000
12:49am 199 0 5 34 78 76.3 56.7 29.91 11.52 0.00 0.00 0.00 0.000
12:50am 199 1 5 34 78 76.3 56.6 29.91 11.52 0.00 0.00 0.00 0.000
12:51am 199 0 5 34 78 76.3 56.6 29.91 11.52 0.00 0.00 0.00 0.000
12:52am 198 2 5 34 78 76.3 56.6 29.91 11.52 0.00 0.00 0.00 0.000
12:53am 190 4 7 34 78 76.3 56.6 29.91 11.52 0.00 0.00 0.00 0.000
12:54am 200 3 9 34 78 76.3 56.6 29.91 11.52 0.00 0.00 0.00 0.000
12:55am 197 4 9 34 79 76.3 56.5 29.91 11.52 0.00 0.00 0.00 0.000
12:56am 196 4 9 34 79 76.3 56.5 29.91 11.52 0.00 0.00 0.00 0.000
12:57am 198 1 9 34 79 76.3 56.5 29.91 11.52 0.00 0.00 0.00 0.000
12:58am 198 3 9 34 79 76.3 56.5 29.91 11.52 0.00 0.00 0.00 0.000
12:59am 198 2 9 34 79 76.3 56.5 29.91 11.52 0.00 0.00 0.00 0.000
1:00am 198 0 9 34 79 76.3 56.4 29.91 11.52 0.00 0.00 0.00 0.000
1:01am 198 0 2 34 79 76.3 56.4 29.90 11.52 0.00 0.00 0.00 0.000
1:02am 192 4 5 34 79 76.3 56.4 29.90 11.52 0.00 0.00 0.00 0.000
1:03am 192 4 5 34 79 76.3 56.4 29.90 11.52 0.00 0.00 0.00 0.000
1:04am 194 3 6 34 79 76.3 56.4 29.90 11.52 0.00 0.00 0.00 0.000
1:05am 194 2 6 34 79 76.3 56.3 29.90 11.52 0.00 0.00 0.00 0.000
1:06am 194 2 6 34 79 76.3 56.3 29.90 11.52 0.00 0.00 0.00 0.000
1:07am 194 3 6 34 79 76.1 56.3 29.90 11.52 0.00 0.00 0.00 0.000
1:08am 194 3 6 34 79 76.1 56.3 29.90 11.52 0.00 0.00 0.00 0.000
1:09am 194 1 6 34 79 76.1 56.3 29.90 11.52 0.00 0.00 0.00 0.000
1:10am 194 0 6 34 80 76.1 56.2 29.90 11.52 0.00 0.00 0.00 0.000
1:11am 194 1 6 34 80 76.1 56.2 29.90 11.52 0.00 0.00 0.00 0.000
1:12am 194 0 6 34 80 76.1 56.2 29.90 11.52 0.00 0.00 0.00 0.000
1:13am 194 0 6 34 80 76.1 56.2 29.89 11.52 0.00 0.00 0.00 0.000
1:14am 194 0 6 34 80 76.1 56.2 29.90 11.52 0.00 0.00 0.00 0.000
1:15am 194 0 6 34 80 76.1 56.2 29.89 11.52 0.00 0.00 0.00 0.000
1:16am 194 0 0 34 80 76.1 56.2 29.89 11.52 0.00 0.00 0.00 0.000
1:17am 194 0 0 34 80 76.1 56.2 29.89 11.52 0.00 0.00 0.00 0.000
1:18am 194 3 4 34 80 76.1 56.2 29.89 11.52 0.00 0.00 0.00 0.000
1:19am 194 1 4 34 80 76.1 56.2 29.89 11.52 0.00 0.00 0.00 0.000
1:20am 194 0 4 34 80 76.1 56.1 29.89 11.52 0.00 0.00 0.00 0.000
1:21am 194 0 4 34 80 76.1 56.1 29.89 11.52 0.00 0.00 0.00 0.000
1:22am 194 0 4 34 80 76.1 56.1 29.89 11.52 0.00 0.00 0.00 0.000
1:23am 194 0 4 34 80 76.1 56.1 29.89 11.52 0.00 0.00 0.00 0.000
1:24am 194 0 4 34 80 76.1 56.0 29.89 11.52 0.00 0.00 0.00 0.000
1:25am 194 1 4 34 80 76.1 56.0 29.89 11.52 0.00 0.00 0.00 0.000
1:26am 194 2 4 34 80 76.1 56.0 29.89 11.52 0.00 0.00 0.00 0.000
1:27am 194 3 4 34 81 75.9 56.0 29.89 11.52 0.00 0.00 0.00 0.000
1:28am 194 0 4 34 81 75.9 56.0 29.89 11.52 0.00 0.00 0.00 0.000
1:29am 194 0 4 34 81 75.9 55.9 29.89 11.52 0.00 0.00 0.00 0.000
1:30am 194 0 4 34 81 75.9 55.9 29.89 11.52 0.00 0.00 0.00 0.000
1:31am 194 0 0 34 81 75.9 55.8 29.89 11.52 0.00 0.00 0.00 0.000
1:32am 194 3 4 34 80 75.9 55.8 29.89 11.52 0.00 0.00 0.00 0.000
1:33am 194 1 4 34 80 75.9 55.8 29.89 11.52 0.00 0.00 0.00 0.000
1:34am 194 0 4 34 80 75.9 55.7 29.89 11.52 0.00 0.00 0.00 0.000
1:35am 194 2 4 34 80 75.9 55.6 29.89 11.52 0.00 0.00 0.00 0.000
1:36am 194 0 4 34 80 75.9 55.6 29.89 11.52 0.00 0.00 0.00 0.000
1:37am 194 0 4 34 81 75.9 55.6 29.89 11.52 0.00 0.00 0.00 0.000
1:38am 194 0 4 34 81 75.9 55.5 29.89 11.52 0.00 0.00 0.00 0.000
1:39am 194 0 4 34 81 75.9 55.5 29.89 11.52 0.00 0.00 0.00 0.000
1:40am 194 0 4 34 81 75.9 55.5 29.89 11.52 0.00 0.00 0.00 0.000
1:41am 194 0 4 34 81 75.9 55.4 29.89 11.52 0.00 0.00 0.00 0.000
1:42am 194 0 4 34 81 75.9 55.4 29.89 11.52 0.00 0.00 0.00 0.000
1:43am 194 0 4 34 81 75.9 55.4 29.89 11.52 0.00 0.00 0.00 0.000
1:44am 176 3 4 34 81 75.9 55.4 29.89 11.52 0.00 0.00 0.00 0.000
1:45am 157 0 4 34 81 75.8 55.3 29.89 11.52 0.00 0.00 0.00 0.000
1:46am 157 0 2 34 81 75.8 55.3 29.89 11.52 0.00 0.00 0.00 0.000
1:47am 157 0 2 34 81 75.8 55.2 29.89 11.52 0.00 0.00 0.00 0.000
1:48am 157 0 2 34 81 75.8 55.2 29.88 11.52 0.00 0.00 0.00 0.000
1:49am 184 0 2 34 81 75.8 55.1 29.88 11.52 0.00 0.00 0.00 0.000
1:50am 184 0 2 34 81 75.8 55.1 29.88 11.52 0.00 0.00 0.00 0.000
1:51am 184 0 2 34 81 75.8 55.0 29.88 11.52 0.00 0.00 0.00 0.000
1:52am 184 0 2 34 81 75.8 55.0 29.89 11.52 0.00 0.00 0.00 0.000
1:53am 183 0 2 34 81 75.8 54.9 29.88 11.52 0.00 0.00 0.00 0.000
1:54am 183 0 2 34 81 75.8 54.9 29.89 11.52 0.00 0.00 0.00 0.000
1:55am 184 0 2 34 81 75.8 54.9 29.88 11.52 0.00 0.00 0.00 0.000
1:56am 184 0 2 34 81 75.8 54.8 29.88 11.52 0.00 0.00 0.00 0.000
1:57am 184 0 2 34 81 75.8 54.8 29.88 11.52 0.00 0.00 0.00 0.000
1:58am 184 0 2 34 81 75.8 54.7 29.88 11.52 0.00 0.00 0.00 0.000
1:59am 183 0 2 34 81 75.8 54.7 29.88 11.52 0.00 0.00 0.00 0.000
2:00am 183 0 2 34 81 75.8 54.7 29.88 11.52 0.00 0.00 0.00 0.000
2:01am 184 0 0 34 81 75.8 54.7 29.88 11.52 0.00 0.00 0.00 0.000
2:02am 184 0 0 34 81 75.8 54.6 29.88 11.52 0.00 0.00 0.00 0.000
2:03am 184 0 0 34 81 75.6 54.6 29.87 11.52 0.00 0.00 0.00 0.000
2:04am 184 0 0 34 81 75.6 54.6 29.88 11.52 0.00 0.00 0.00 0.000
2:05am 184 0 0 34 81 75.6 54.6 29.87 11.52 0.00 0.00 0.00 0.000
2:06am 183 0 0 34 81 75.6 54.5 29.87 11.52 0.00 0.00 0.00 0.000
2:07am 183 0 0 34 81 75.6 54.5 29.87 11.52 0.00 0.00 0.00 0.000
2:08am 184 0 0 34 81 75.6 54.5 29.87 11.52 0.00 0.00 0.00 0.000
2:09am 183 0 0 34 81 75.6 54.5 29.87 11.52 0.00 0.00 0.00 0.000
2:10am 184 0 1 34 81 75.6 54.5 29.87 11.52 0.00 0.00 0.00 0.000
2:11am 184 0 2 34 81 75.6 54.5 29.87 11.52 0.00 0.00 0.00 0.000
2:12am 184 2 2 34 81 75.6 54.5 29.87 11.52 0.00 0.00 0.00 0.000
2:13am 183 1 3 34 81 75.6 54.5 29.87 11.52 0.00 0.00 0.00 0.000
2:14am 183 0 3 34 81 75.6 54.4 29.87 11.52 0.00 0.00 0.00 0.000
2:14am 183 0 3 34 81 75.6 54.4 29.88 11.52 0.00 0.00 0.00 0.000
2:16am 183 0 1 34 81 75.6 54.4 29.88 11.52 0.00 0.00 0.00 0.000
2:17am 183 0 1 34 82 75.4 54.4 29.88 11.52 0.00 0.00 0.00 0.000
2:18am 183 0 1 34 82 75.4 54.4 29.88 11.52 0.00 0.00 0.00 0.000
2:19am 183 0 1 34 82 75.4 54.4 29.88 11.52 0.00 0.00 0.00 0.000
2:20am 183 0 1 34 82 75.4 54.4 29.88 11.52 0.00 0.00 0.00 0.000
2:21am 183 0 1 34 82 75.4 54.3 29.88 11.52 0.00 0.00 0.00 0.000
2:22am 183 0 1 34 82 75.4 54.3 29.88 11.52 0.00 0.00 0.00 0.000
2:23am 183 0 1 34 82 75.4 54.3 29.87 11.52 0.00 0.00 0.00 0.000
2:24am 183 0 1 34 82 75.4 54.3 29.87 11.52 0.00 0.00 0.00 0.000
2:25am 183 0 1 34 82 75.4 54.3 29.88 11.52 0.00 0.00 0.00 0.000
2:26am 183 0 1 34 82 75.4 54.2 29.88 11.52 0.00 0.00 0.00 0.000
2:27am 183 0 1 34 82 75.4 54.3 29.87 11.52 0.00 0.00 0.00 0.000
2:28am 183 0 1 34 82 75.4 54.2 29.87 11.52 0.00 0.00 0.00 0.000
2:29am 183 0 1 34 82 75.4 54.2 29.87 11.52 0.00 0.00 0.00 0.000
2:30am 183 0 1 34 82 75.4 54.2 29.87 11.52 0.00 0.00 0.00 0.000
2:31am 183 0 0 34 82 75.2 54.2 29.87 11.52 0.00 0.00 0.00 0.000
2:32am 183 0 0 34 82 75.2 54.2 29.87 11.52 0.00 0.00 0.00 0.000
2:33am 183 0 0 34 82 75.2 54.2 29.87 11.52 0.00 0.00 0.00 0.000
2:34am 183 0 0 34 82 75.2 54.2 29.87 11.52 0.00 0.00 0.00 0.000
2:35am 183 1 1 34 82 75.2 54.2 29.87 11.52 0.00 0.00 0.00 0.000
2:36am 183 0 2 34 82 75.2 54.2 29.87 11.52 0.00 0.00 0.00 0.000
2:36am 183 0 2 34 82 75.2 54.2 29.87 11.52 0.00 0.00 0.00 0.000
2:38am 183 0 2 34 82 75.2 54.2 29.87 11.52 0.00 0.00 0.00 0.000
2:39am 183 0 2 34 82 75.2 54.2 29.87 11.52 0.00 0.00 0.00 0.000
2:40am 182 0 2 34 82 75.2 54.1 29.87 11.52 0.00 0.00 0.00 0.000
2:41am 182 2 2 34 82 75.2 54.1 29.87 11.52 0.00 0.00 0.00 0.000
2:42am 183 1 3 34 82 75.2 54.1 29.87 11.52 0.00 0.00 0.00 0.000
2:43am 183 0 3 34 82 75.2 54.0 29.87 11.52 0.00 0.00 0.00 0.000
2:44am 183 0 3 34 82 75.2 54.0 29.87 11.52 0.00 0.00 0.00 0.000
2:45am 183 2 3 34 82 75.2 54.0 29.87 11.52 0.00 0.00 0.00 0.000
2:46am 183 1 2 34 82 75.2 54.0 29.87 11.52 0.00 0.00 0.00 0.000
2:47am 183 0 2 34 82 75.2 54.0 29.87 11.52 0.00 0.00 0.00 0.000
2:48am 183 0 2 34 82 75.1 54.0 29.87 11.52 0.00 0.00 0.00 0.000
2:49am 183 0 2 34 82 75.1 54.0 29.87 11.52 0.00 0.00 0.00 0.000
2:50am 183 0 2 34 82 75.1 54.0 29.87 11.52 0.00 0.00 0.00 0.000
2:51am 183 0 2 34 82 75.1 53.9 29.87 11.52 0.00 0.00 0.00 0.000
2:52am 183 0 2 34 82 75.1 53.9 29.87 11.52 0.00 0.00 0.00 0.000
2:53am 183 1 2 34 82 75.1 53.9 29.87 11.52 0.00 0.00 0.00 0.000
2:54am 183 0 2 34 82 75.1 53.9 29.87 11.52 0.00 0.00 0.00 0.000
2:55am 183 2 2 34 82 75.1 53.8 29.87 11.52 0.00 0.00 0.00 0.000
2:56am 183 0 2 34 82 75.1 53.8 29.87 11.52 0.00 0.00 0.00 0.000
2:57am 183 0 2 34 83 75.1 53.8 29.87 11.52 0.00 0.00 0.00 0.000
2:58am 183 0 2 34 83 75.1 53.8 29.87 11.52 0.00 0.00 0.00 0.000
2:59am 183 0 2 34 83 75.1 53.8 29.87 11.52 0.00 0.00 0.00 0.000
3:00am 183 0 2 34 83 75.1 53.7 29.86 11.52 0.00 0.00 0.00 0.000
3:01am 183 0 0 34 83 75.1 53.7 29.87 11.52 0.00 0.00 0.00 0.000
3:02am 183 0 1 34 83 74.9 53.7 29.86 11.52 0.00 0.00 0.00 0.000
3:03am 183 1 1 34 83 74.9 53.7 29.87 11.52 0.00 0.00 0.00 0.000
3:04am 183 0 1 34 83 74.9 53.7 29.86 11.52 0.00 0.00 0.00 0.000
3:05am 183 0 1 34 83 74.9 53.7 29.86 11.52 0.00 0.00 0.00 0.000
3:06am 183 0 1 34 83 74.9 53.7 29.86 11.52 0.00 0.00 0.00 0.000
3:07am 183 0 1 34 83 74.9 53.6 29.86 11.52 0.00 0.00 0.00 0.000
3:07am 183 1 1 34 83 74.9 53.6 29.86 11.52 0.00 0.00 0.00 0.000
3:09am 183 0 1 34 83 74.9 53.6 29.86 11.52 0.00 0.00 0.00 0.000
3:10am 183 0 1 34 83 74.9 53.6 29.86 11.52 0.00 0.00 0.00 0.000
3:11am 183 0 1 34 83 74.9 53.6 29.87 11.52 0.00 0.00 0.00 0.000
3:12am 183 0 1 34 83 74.9 53.6 29.87 11.52 0.00 0.00 0.00 0.000
3:13am 183 0 1 34 83 74.9 53.6 29.86 11.52 0.00 0.00 0.00 0.000
3:14am 183 0 1 34 83 74.9 53.6 29.86 11.52 0.00 0.00 0.00 0.000
3:15am 183 0 1 34 83 74.9 53.6 29.86 11.52 0.00 0.00 0.00 0.000
3:16am 183 0 0 34 83 74.9 53.6 29.86 11.52 0.00 0.00 0.00 0.000
3:17am 183 0 0 34 83 74.9 53.6 29.86 11.52 0.00 0.00 0.00 0.000
3:18am 183 0 0 34 83 74.7 53.6 29.86 11.52 0.00 0.00 0.00 0.000
3:19am 183 0 1 34 83 74.7 53.6 29.86 11.52 0.00 0.00 0.00 0.000
3:20am 183 0 1 34 83 74.7 53.6 29.86 11.52 0.00 0.00 0.00 0.000
3:21am 183 0 1 34 83 74.7 53.6 29.86 11.52 0.00 0.00 0.00 0.000
3:22am 183 0 1 34 83 74.7 53.6 29.86 11.52 0.00 0.00 0.00 0.000
3:23am 183 0 1 34 83 74.7 53.6 29.86 11.52 0.00 0.00 0.00 0.000
3:24am 183 1 2 34 83 74.7 53.7 29.86 11.52 0.00 0.00 0.00 0.000
3:25am 183 0 2 34 83 74.7 53.7 29.86 11.52 0.00 0.00 0.00 0.000
3:26am 183 0 2 34 83 74.7 53.7 29.86 11.52 0.00 0.00 0.00 0.000
3:27am 183 0 2 34 83 74.7 53.6 29.86 11.52 0.00 0.00 0.00 0.000
3:28am 183 0 2 34 83 74.7 53.7 29.86 11.52 0.00 0.00 0.00 0.000
3:29am 183 0 2 34 83 74.7 53.6 29.86 11.52 0.00 0.00 0.00 0.000
3:30am 182 0 2 34 83 74.7 53.6 29.86 11.52 0.00 0.00 0.00 0.000
3:31am 183 0 0 34 83 74.7 53.6 29.86 11.52 0.00 0.00 0.00 0.000
3:32am 183 0 2 34 83 74.5 53.6 29.86 11.52 0.00 0.00 0.00 0.000
3:33am 182 0 2 34 83 74.5 53.6 29.86 11.52 0.00 0.00 0.00 0.000
3:34am 182 0 2 34 83 74.5 53.6 29.86 11.52 0.00 0.00 0.00 0.000
3:35am 182 0 2 34 83 74.5 53.6 29.86 11.52 0.00 0.00 0.00 0.000
3:36am 182 0 2 34 83 74.5 53.6 29.86 11.52 0.00 0.00 0.00 0.000
3:37am 183 0 2 34 83 74.5 53.5 29.86 11.52 0.00 0.00 0.00 0.000
3:38am 183 0 2 34 83 74.5 53.5 29.86 11.52 0.00 0.00 0.00 0.000
3:39am 183 0 2 34 83 74.5 53.5 29.86 11.52 0.00 0.00 0.00 0.000
3:40am 182 0 2 34 83 74.5 53.5 29.86 11.52 0.00 0.00 0.00 0.000
3:41am 183 0 2 34 84 74.5 53.5 29.86 11.52 0.00 0.00 0.00 0.000
3:42am 183 0 2 34 84 74.5 53.5 29.86 11.52 0.00 0.00 0.00 0.000
3:43am 183 0 2 34 84 74.5 53.5 29.86 11.52 0.00 0.00 0.00 0.000
3:44am 183 0 2 34 84 74.5 53.5 29.86 11.52 0.00 0.00 0.00 0.000
3:45am 183 0 2 34 84 74.5 53.5 29.86 11.52 0.00 0.00 0.00 0.000
3:46am 183 0 0 34 84 74.5 53.5 29.86 11.52 0.00 0.00 0.00 0.000
3:47am 182 0 0 34 84 74.5 53.5 29.86 11.52 0.00 0.00 0.00 0.000
3:48am 182 0 0 34 84 74.4 53.5 29.86 11.52 0.00 0.00 0.00 0.000
3:49am 183 0 0 34 84 74.4 53.5 29.86 11.52 0.00 0.00 0.00 0.000
3:50am 183 0 0 34 84 74.4 53.4 29.86 11.52 0.00 0.00 0.00 0.000
3:51am 182 0 0 34 84 74.4 53.4 29.86 11.52 0.00 0.00 0.00 0.000
3:52am 183 0 0 34 84 74.4 53.4 29.86 11.52 0.00 0.00 0.00 0.000
3:53am 183 0 0 34 84 74.4 53.4 29.86 11.52 0.00 0.00 0.00 0.000
3:54am 183 0 0 34 84 74.4 53.4 29.86 11.52 0.00 0.00 0.00 0.000
3:55am 183 0 0 34 84 74.4 53.4 29.86 11.52 0.00 0.00 0.00 0.000
3:56am 183 0 0 34 84 74.4 53.4 29.86 11.52 0.00 0.00 0.00 0.000
3:57am 183 0 0 34 84 74.4 53.4 29.86 11.52 0.00 0.00 0.00 0.000
3:58am 183 0 0 34 84 74.4 53.4 29.86 11.52 0.00 0.00 0.00 0.000
3:59am 183 0 0 34 84 74.4 53.4 29.86 11.52 0.00 0.00 0.00 0.000
4:00am 183 0 0 34 84 74.4 53.4 29.86 11.52 0.00 0.00 0.00 0.000
4:01am 183 0 0 34 84 74.4 53.4 29.86 11.52 0.00 0.00 0.00 0.000
4:02am 183 0 0 34 84 74.4 53.4 29.86 11.52 0.00 0.00 0.00 0.000
4:03am 182 0 0 34 84 74.4 53.4 29.86 11.52 0.00 0.00 0.00 0.000
4:04am 183 0 0 34 84 74.4 53.4 29.86 11.52 0.00 0.00 0.00 0.000
4:05am 182 0 1 34 84 74.2 53.4 29.86 11.52 0.00 0.00 0.00 0.000
4:06am 182 0 1 34 84 74.2 53.4 29.86 11.52 0.00 0.00 0.00 0.000
4:07am 183 0 1 34 84 74.2 53.4 29.86 11.52 0.00 0.00 0.00 0.000
4:08am 183 0 1 34 84 74.2 53.4 29.85 11.52 0.00 0.00 0.00 0.000
4:09am 183 0 1 34 84 74.2 53.4 29.86 11.52 0.00 0.00 0.00 0.000
4:10am 182 0 1 34 84 74.2 53.4 29.86 11.52 0.00 0.00 0.00 0.000
4:11am 183 0 1 34 84 74.2 53.4 29.85 11.52 0.00 0.00 0.00 0.000
4:12am 182 0 1 34 84 74.2 53.4 29.85 11.52 0.00 0.00 0.00 0.000
4:13am 183 0 2 34 84 74.2 53.4 29.86 11.52 0.00 0.00 0.00 0.000
4:14am 183 0 2 34 84 74.2 53.4 29.86 11.52 0.00 0.00 0.00 0.000
4:15am 183 0 2 34 84 74.2 53.3 29.86 11.52 0.00 0.00 0.00 0.000
4:16am 183 0 0 34 84 74.2 53.3 29.86 11.52 0.00 0.00 0.00 0.000
4:17am 183 0 0 34 84 74.2 53.3 29.86 11.52 0.00 0.00 0.00 0.000
4:18am 183 0 0 34 84 74.2 53.3 29.86 11.52 0.00 0.00 0.00 0.000
4:19am 183 0 0 34 84 74.2 53.3 29.86 11.52 0.00 0.00 0.00 0.000
4:19am 183 0 0 34 84 74.2 53.3 29.86 11.52 0.00 0.00 0.00 0.000
4:21am 183 2 2 34 84 74.0 53.3 29.86 11.52 0.00 0.00 0.00 0.000
4:22am 183 0 2 34 84 74.0 53.3 29.86 11.52 0.00 0.00 0.00 0.000
4:23am 183 0 2 34 84 74.0 53.3 29.86 11.52 0.00 0.00 0.00 0.000
4:24am 183 0 2 34 84 74.0 53.3 29.86 11.52 0.00 0.00 0.00 0.000
4:25am 183 0 2 34 84 74.0 53.3 29.86 11.52 0.00 0.00 0.00 0.000
4:26am 183 0 2 34 84 74.0 53.3 29.86 11.52 0.00 0.00 0.00 0.000
4:27am 183 0 2 34 84 74.0 53.3 29.86 11.52 0.00 0.00 0.00 0.000
4:28am 183 0 2 34 84 74.0 53.3 29.85 11.52 0.00 0.00 0.00 0.000
4:29am 183 0 2 34 84 74.0 53.3 29.85 11.52 0.00 0.00 0.00 0.000
4:30am 183 0 2 34 84 74.0 53.3 29.85 11.52 0.00 0.00 0.00 0.000
4:31am 183 0 0 34 84 74.0 53.3 29.85 11.52 0.00 0.00 0.00 0.000
4:32am 183 0 0 34 84 74.0 53.3 29.85 11.52 0.00 0.00 0.00 0.000
4:33am 183 0 0 34 84 74.0 53.3 29.85 11.52 0.00 0.00 0.00 0.000
4:34am 183 0 0 34 84 74.0 53.3 29.85 11.52 0.00 0.00 0.00 0.000
4:35am 183 0 0 34 84 74.0 53.3 29.85 11.52 0.00 0.00 0.00 0.000
4:36am 183 0 2 34 85 73.9 53.3 29.85 11.52 0.00 0.00 0.00 0.000
4:37am 183 0 2 34 85 73.9 53.3 29.85 11.52 0.00 0.00 0.00 0.000
4:38am 183 0 2 34 85 73.9 53.3 29.85 11.52 0.00 0.00 0.00 0.000
4:39am 183 0 2 34 85 73.9 53.3 29.85 11.52 0.00 0.00 0.00 0.000
4:40am 183 0 2 34 85 73.9 53.3 29.85 11.52 0.00 0.00 0.00 0.000
4:41am 183 0 2 34 85 73.9 53.3 29.85 11.52 0.00 0.00 0.00 0.000
4:42am 183 0 2 34 85 73.9 53.3 29.85 11.52 0.00 0.00 0.00 0.000
4:43am 183 0 2 34 85 73.9 53.3 29.85 11.52 0.00 0.00 0.00 0.000
4:44am 183 3 3 34 85 73.9 53.3 29.85 11.52 0.00 0.00 0.00 0.000
4:45am 183 0 3 34 85 73.9 53.3 29.85 11.52 0.00 0.00 0.00 0.000
4:46am 183 2 2 34 85 73.9 53.3 29.85 11.52 0.00 0.00 0.00 0.000
4:47am 183 1 2 34 85 73.9 53.2 29.85 11.52 0.00 0.00 0.00 0.000
4:48am 183 2 3 34 85 73.9 53.2 29.84 11.52 0.00 0.00 0.00 0.000
4:49am 183 0 3 34 85 73.9 53.2 29.84 11.52 0.00 0.00 0.00 0.000
4:50am 183 0 3 34 85 73.9 53.2 29.84 11.52 0.00 0.00 0.00 0.000
4:51am 183 0 3 35 85 73.9 53.2 29.85 11.52 0.00 0.00 0.00 0.000
4:52am 183 0 3 34 85 73.9 53.2 29.85 11.52 0.00 0.00 0.00 0.000
4:53am 183 0 3 35 85 73.9 53.2 29.85 11.52 0.00 0.00 0.00 0.000
4:54am 183 0 3 35 85 73.9 53.2 29.85 11.52 0.00 0.00 0.00 0.000
4:55am 183 0 3 35 85 73.9 53.2 29.85 11.52 0.00 0.00 0.00 0.000
4:56am 183 0 3 35 85 73.9 53.2 29.85 11.52 0.00 0.00 0.00 0.000
4:57am 183 0 3 35 85 73.7 53.2 29.85 11.52 0.00 0.00 0.00 0.000
4:58am 183 1 3 35 85 73.7 53.2 29.84 11.52 0.00 0.00 0.00 0.000
4:59am 183 0 3 35 85 73.7 53.2 29.84 11.52 0.00 0.00 0.00 0.000
5:00am 183 0 3 35 85 73.7 53.2 29.85 11.52 0.00 0.00 0.00 0.000
5:01am 183 0 0 35 85 73.7 53.2 29.85 11.52 0.00 0.00 0.00 0.000
5:02am 183 0 0 35 85 73.7 53.2 29.85 11.52 0.00 0.00 0.00 0.000
5:03am 183 0 0 35 85 73.7 53.3 29.84 11.52 0.00 0.00 0.00 0.000
5:04am 183 0 0 35 85 73.7 53.2 29.85 11.52 0.00 0.00 0.00 0.000
5:05am 183 0 0 35 85 73.7 53.2 29.84 11.52 0.00 0.00 0.00 0.000
5:06am 182 0 2 35 85 73.7 53.2 29.84 11.52 0.00 0.00 0.00 0.000
5:07am 182 0 2 35 85 73.7 53.2 29.84 11.52 0.00 0.00 0.00 0.000
5:08am 182 1 2 35 85 73.7 53.2 29.84 11.52 0.00 0.00 0.00 0.000
5:09am 182 0 2 35 85 73.7 53.2 29.84 11.52 0.00 0.00 0.00 0.000
5:10am 182 0 2 35 85 73.7 53.2 29.84 11.52 0.00 0.00 0.00 0.000
5:10am 182 2 2 35 85 73.7 53.2 29.84 11.52 0.00 0.00 0.00 0.000
5:12am 182 1 3 35 85 73.7 53.2 29.84 11.52 0.00 0.00 0.00 0.000
5:13am 182 2 3 35 85 73.7 53.2 29.84 11.52 0.00 0.00 0.00 0.000
5:14am 182 0 3 35 85 73.7 53.2 29.84 11.52 0.00 0.00 0.00 0.000
5:15am 182 0 3 35 85 73.5 53.2 29.84 11.52 0.00 0.00 0.00 0.000
5:15am 182 0 0 35 85 73.5 53.2 29.84 11.52 0.00 0.00 0.00 0.000
5:17am 182 3 3 35 85 73.5 53.2 29.84 11.52 0.00 0.00 0.00 0.000
5:18am 182 0 3 35 85 73.5 53.2 29.84 11.52 0.00 0.00 0.00 0.000
5:19am 183 1 3 35 85 73.5 53.2 29.84 11.52 0.00 0.00 0.00 0.000
5:20am 183 3 3 35 85 73.5 53.2 29.84 11.52 0.00 0.00 0.00 0.000
5:21am 183 2 4 35 85 73.5 53.1 29.84 11.52 0.00 0.00 0.00 0.000
5:22am 183 0 4 35 85 73.5 53.1 29.84 11.52 0.00 0.00 0.00 0.000
5:23am 183 1 4 35 85 73.5 53.1 29.84 11.52 0.00 0.00 0.00 0.000
5:24am 183 0 4 35 85 73.5 53.1 29.84 11.52 0.00 0.00 0.00 0.000
5:25am 183 2 4 35 85 73.5 53.1 29.84 11.52 0.00 0.00 0.00 0.000
5:26am 183 3 4 35 85 73.5 53.1 29.84 11.52 0.00 0.00 0.00 0.000
5:27am 183 2 4 35 85 73.5 53.1 29.84 11.52 0.00 0.00 0.00 0.000
5:28am 183 0 4 35 85 73.5 53.1 29.84 11.52 0.00 0.00 0.00 0.000
5:29am 183 1 4 35 85 73.5 53.1 29.84 11.52 0.00 0.00 0.00 0.000
5:30am 183 2 4 35 85 73.5 53.0 29.84 11.52 0.00 0.00 0.00 0.000
5:31am 183 1 2 35 85 73.5 53.0 29.84 11.52 0.00 0.00 0.00 0.000
5:32am 183 1 2 35 85 73.5 53.0 29.84 11.52 0.00 0.00 0.00 0.000
5:33am 183 0 3 35 85 73.5 53.0 29.84 11.52 0.00 0.00 0.00 0.000
5:34am 183 3 3 35 85 73.5 53.0 29.84 11.52 0.00 0.00 0.00 0.000
5:34am 183 1 3 35 85 73.5 53.0 29.84 11.52 0.00 0.00 0.00 0.000
5:36am 183 3 3 35 85 73.5 53.0 29.84 11.52 0.00 0.00 0.00 0.000
5:37am 183 3 5 35 85 73.5 53.0 29.84 11.52 0.00 0.00 0.00 0.000
5:38am 188 3 5 35 85 73.5 53.0 29.84 11.52 0.00 0.00 0.00 0.000
5:39am 187 1 5 35 85 73.5 53.0 29.84 11.52 0.00 0.00 0.00 0.000
5:40am 187 0 5 35 86 73.5 53.0 29.83 11.52 0.00 0.00 0.00 0.000
5:41am 188 0 5 35 86 73.5 53.0 29.84 11.52 0.00 0.00 0.00 0.000
5:42am 188 2 5 35 86 73.5 52.9 29.84 11.52 0.00 0.00 0.00 0.000
5:43am 188 1 5 35 86 73.5 53.0 29.84 11.52 0.00 0.00 0.00 0.000
5:44am 188 0 5 35 86 73.5 52.9 29.84 11.52 0.00 0.00 0.00 0.000
5:45am 188 0 5 35 86 73.5 52.9 29.84 11.52 0.00 0.00 0.00 0.000
5:46am 187 0 1 35 86 73.5 52.9 29.84 11.52 0.00 0.00 0.00 0.000
5:47am 188 0 1 35 86 73.5 52.9 29.84 11.52 0.00 0.00 0.00 0.000
5:48am 188 0 1 35 86 73.5 52.9 29.84 11.52 0.00 0.00 0.00 0.000
5:49am 188 0 1 35 86 73.5 52.9 29.84 11.52 0.00 0.00 0.00 0.000
5:49am 188 0 1 35 86 73.5 52.9 29.84 11.52 0.00 0.00 0.00 0.000
5:53am 188 0 1 35 86 73.7 52.9 29.84 11.52 0.00 0.00 0.00 0.000
5:54am 188 0 1 35 86 73.7 52.9 29.84 11.52 0.00 0.00 0.00 0.000
5:55am 188 0 1 35 86 73.7 52.9 29.84 11.52 0.00 0.00 0.00 0.000
5:57am 187 0 1 35 86 73.7 52.8 29.84 11.52 0.00 0.00 0.00 0.000
5:58am 188 0 1 35 86 73.7 52.8 29.84 11.52 0.00 0.00 0.00 0.000
5:59am 187 0 1 35 86 73.7 52.8 29.84 11.52 0.00 0.00 0.00 0.000
6:00am 188 0 1 35 86 73.7 52.8 29.84 11.52 0.00 0.00 0.00 0.000
6:01am 188 0 0 35 86 73.7 52.8 29.85 11.52 0.00 0.00 0.00 0.000
6:02am 188 1 1 35 86 73.7 52.8 29.85 11.52 0.00 0.00 0.00 0.000
6:03am 188 0 1 35 86 73.7 52.8 29.85 11.52 0.00 0.00 0.00 0.000
6:04am 188 0 1 35 86 73.7 52.8 29.85 11.52 0.00 0.00 0.00 0.000
6:05am 188 0 1 35 86 73.7 52.7 29.85 11.52 0.00 0.00 0.00 0.000
6:06am 187 0 1 34 86 73.9 52.8 29.85 11.52 0.00 0.00 0.00 0.000
6:07am 187 0 1 34 86 73.9 52.7 29.85 11.52 0.00 0.00 0.00 0.000
6:07am 188 0 1 34 86 73.9 52.7 29.85 11.52 0.00 0.00 0.00 0.000
6:09am 188 0 1 34 86 73.9 52.7 29.85 11.52 0.00 0.00 0.00 0.000
6:10am 188 0 1 34 86 73.9 52.7 29.85 11.52 0.00 0.00 0.00 0.000
6:11am 188 0 1 34 86 73.9 52.7 29.85 11.52 0.00 0.00 0.00 0.000
6:12am 188 0 1 34 86 73.9 52.7 29.85 11.52 0.00 0.00 0.00 0.000
6:13am 188 0 2 34 86 73.9 52.7 29.85 11.52 0.00 0.00 0.00 0.000
6:14am 188 3 3 34 86 73.9 52.7 29.86 11.52 0.00 0.00 0.00 0.000
6:15am 346 2 5 34 86 73.7 52.7 29.86 11.52 0.00 0.00 0.00 0.000
6:16am 346 0 2 34 86 73.7 52.7 29.86 11.52 0.00 0.00 0.00 0.000
6:17am 346 1 2 34 86 73.7 52.7 29.86 11.52 0.00 0.00 0.00 0.000
6:18am 346 0 2 34 86 73.7 52.7 29.86 11.52 0.00 0.00 0.00 0.000
6:19am 346 0 2 34 86 73.7 52.7 29.86 11.52 0.00 0.00 0.00 0.000
6:20am 346 0 2 34 86 73.7 52.7 29.86 11.52 0.00 0.00 0.00 0.000
6:21am 346 0 2 34 86 73.7 52.7 29.86 11.52 0.00 0.00 0.00 0.000
6:22am 346 0 2 34 86 73.7 52.7 29.86 11.52 0.00 0.00 0.00 0.000
6:23am 346 0 2 34 86 73.7 52.7 29.86 11.52 0.00 0.00 0.00 0.000
6:24am 346 0 2 34 86 73.7 52.7 29.86 11.52 0.00 0.00 0.00 0.000
6:25am 346 0 2 34 86 73.7 52.7 29.86 11.52 0.00 0.00 0.00 0.000
6:26am 346 0 2 34 86 73.7 52.7 29.86 11.52 0.00 0.00 0.00 0.000
6:27am 346 0 2 34 86 73.7 52.7 29.86 11.52 0.00 0.00 0.00 0.000
6:28am 346 0 2 34 86 73.7 52.7 29.86 11.52 0.00 0.00 0.00 0.000
6:29am 346 0 2 34 86 73.7 52.7 29.86 11.52 0.00 0.00 0.00 0.000
6:30am 346 0 2 34 86 73.7 52.7 29.86 11.52 0.00 0.00 0.00 0.000
6:31am 346 0 0 34 86 73.7 52.7 29.86 11.52 0.00 0.00 0.00 0.000
6:32am 346 0 0 34 86 73.7 52.7 29.86 11.52 0.00 0.00 0.00 0.000
6:33am 346 0 0 34 86 73.7 52.7 29.86 11.52 0.00 0.00 0.00 0.000
6:34am 346 0 0 34 86 73.7 52.7 29.85 11.52 0.00 0.00 0.00 0.000
6:35am 346 0 1 34 86 73.7 52.7 29.86 11.52 0.00 0.00 0.00 0.000
6:36am 346 0 1 34 86 73.7 52.7 29.86 11.52 0.00 0.00 0.00 0.000
6:37am 280 0 2 34 86 73.7 52.7 29.86 11.52 0.00 0.00 0.00 0.000
6:38am 280 0 2 34 86 73.5 52.7 29.86 11.52 0.00 0.00 0.00 0.000
6:39am 280 0 2 34 86 73.5 52.7 29.86 11.52 0.00 0.00 0.00 0.000
6:40am 281 0 2 34 86 73.5 52.7 29.86 11.52 0.00 0.00 0.00 0.000
6:41am 280 0 2 34 86 73.5 52.7 29.86 11.52 0.00 0.00 0.00 0.000
6:42am 301 2 2 34 86 73.5 52.7 29.86 11.52 0.00 0.00 0.00 0.000
6:43am 305 2 3 34 86 73.5 52.7 29.86 11.52 0.00 0.00 0.00 0.000
6:44am 305 0 3 34 86 73.5 52.7 29.86 11.52 0.00 0.00 0.00 0.000
6:45am 305 0 3 34 87 73.5 52.7 29.86 11.52 0.00 0.00 0.00 0.000
6:46am 305 0 1 34 87 73.5 52.7 29.86 11.52 0.00 0.00 0.00 0.000
6:47am 305 0 1 34 87 73.5 52.7 29.86 11.52 0.00 0.00 0.00 0.000
6:48am 305 0 1 34 87 73.5 52.7 29.85 11.52 0.00 0.00 0.00 0.000
6:49am 305 0 1 34 87 73.5 52.7 29.85 11.52 0.00 0.00 0.00 0.000
6:49am 305 0 1 34 87 73.5 52.7 29.85 11.52 0.00 0.00 0.00 0.000
6:51am 305 0 1 34 87 73.5 52.7 29.85 11.52 0.00 0.00 0.00 0.000
6:52am 305 0 1 34 87 73.3 52.7 29.85 11.52 0.00 0.00 0.00 0.000
6:53am 305 0 1 34 87 73.3 52.7 29.86 11.52 0.00 0.00 0.00 0.000
6:54am 305 0 1 34 87 73.3 52.7 29.86 11.52 0.00 0.00 0.00 0.000
6:55am 305 0 1 34 87 73.3 52.7 29.86 11.52 0.00 0.00 0.00 0.000
6:56am 305 0 1 34 87 73.3 52.7 29.86 11.52 0.00 0.00 0.00 0.000
6:57am 305 0 1 34 87 73.3 52.7 29.86 11.52 0.00 0.00 0.00 0.000
6:58am 305 0 1 34 87 73.3 52.7 29.86 11.52 0.00 0.00 0.00 0.000
6:59am 305 0 1 34 87 73.3 52.7 29.86 11.52 0.00 0.00 0.00 0.000
7:00am 305 0 1 34 87 73.3 52.7 29.86 11.52 0.00 0.00 0.00 0.000
7:01am 350 2 2 34 86 73.3 52.7 29.86 11.52 0.00 0.00 0.00 0.000
7:02am 353 1 3 34 86 73.3 52.7 29.86 11.52 0.00 0.00 0.00 0.000
7:03am 353 0 3 34 87 73.3 52.7 29.86 11.52 0.00 0.00 0.00 0.000
7:04am 358 2 3 34 87 73.2 52.7 29.86 11.52 0.00 0.00 0.00 0.000
7:05am 359 1 3 34 87 73.2 52.7 29.86 11.52 0.00 0.00 0.00 0.000
7:06am 359 0 3 34 87 73.2 52.7 29.87 11.52 0.00 0.00 0.00 0.000
7:07am 359 1 3 34 87 73.2 52.7 29.87 11.52 0.00 0.00 0.00 0.000
7:08am 12 3 3 34 87 73.2 52.7 29.87 11.52 0.00 0.00 0.00 0.000
7:09am 12 1 3 34 87 73.2 52.8 29.87 11.52 0.00 0.00 0.00 0.000
7:10am 13 1 3 34 87 73.2 52.8 29.87 11.52 0.00 0.00 0.00 0.000
7:11am 20 0 3 34 87 73.2 52.8 29.87 11.52 0.00 0.00 0.00 0.000
7:12am 43 2 3 34 87 73.2 52.8 29.86 11.52 0.00 0.00 0.00 0.000
7:13am 109 0 3 34 87 73.2 52.8 29.87 11.52 0.00 0.00 0.00 0.000
7:14am 70 1 3 34 87 73.2 52.7 29.87 11.52 0.00 0.00 0.00 0.000
7:15am 187 4 5 34 87 73.2 52.7 29.86 11.52 0.00 0.00 0.00 0.000
7:16am 82 2 4 34 87 73.2 52.6 29.87 11.52 0.00 0.00 0.00 0.000
7:17am 84 1 4 34 87 73.2 52.6 29.87 11.52 0.00 0.00 0.00 0.000
7:18am 65 4 4 34 87 73.2 52.5 29.87 11.52 0.00 0.00 0.00 0.000
7:19am 64 3 5 35 87 73.2 52.4 29.87 11.52 0.00 0.00 0.00 0.000
7:20am 92 6 6 35 87 73.0 52.4 29.87 11.52 0.00 0.00 0.00 0.000
7:21am 89 2 6 35 87 73.0 52.2 29.88 11.52 0.00 0.00 0.00 0.000
7:22am 86 5 9 35 87 73.0 52.2 29.88 11.52 0.00 0.00 0.00 0.000
7:23am 88 7 10 35 87 73.0 52.0 29.88 11.52 0.00 0.00 0.00 0.000
7:24am 84 5 10 35 87 73.0 51.9 29.88 11.52 0.00 0.00 0.00 0.000
7:25am 93 7 10 35 86 73.0 51.9 29.88 11.52 0.00 0.00 0.00 0.000
7:26am 85 4 12 35 86 73.0 51.8 29.88 11.52 0.00 0.00 0.00 0.000
7:27am 82 6 12 35 86 73.0 51.7 29.88 11.52 0.00 0.00 0.00 0.000
7:28am 107 5 12 35 86 73.0 51.7 29.88 11.52 0.00 0.00 0.00 0.000
7:29am 103 0 12 35 86 73.0 51.6 29.88 11.52 0.00 0.00 0.00 0.000
7:30am 90 1 12 35 87 73.0 51.6 29.88 11.52 0.00 0.00 0.00 0.000
7:31am 92 0 4 35 87 73.0 51.6 29.88 11.52 0.00 0.00 0.00 0.000
7:32am 90 4 5 35 87 73.0 51.5 29.88 11.52 0.00 0.00 0.00 0.000
7:33am 64 5 8 35 87 73.0 51.5 29.88 11.52 0.00 0.00 0.00 0.000
7:34am 97 2 8 35 87 73.0 51.5 29.88 11.52 0.00 0.00 0.00 0.000
7:35am 80 1 8 35 87 73.0 51.5 29.88 11.52 0.00 0.00 0.00 0.000
7:36am 108 6 8 35 87 73.0 51.5 29.88 11.52 0.00 0.00 0.00 0.000
7:37am 89 2 8 35 87 73.0 51.4 29.88 11.52 0.00 0.00 0.00 0.000
7:38am 100 2 8 35 87 73.0 51.4 29.88 11.52 0.00 0.00 0.00 0.000
7:39am 86 2 8 35 87 72.8 51.4 29.89 11.52 0.00 0.00 0.00 0.000
7:40am 107 1 8 35 90 72.8 51.4 29.89 11.52 0.00 0.00 0.00 0.000
7:41am 106 3 8 35 87 72.8 51.4 29.89 11.52 0.00 0.00 0.00 0.000
7:41am 112 0 8 35 87 72.8 51.4 29.89 11.52 0.00 0.00 0.00 0.000
7:43am 94 0 8 35 87 72.8 51.4 29.89 11.52 0.00 0.00 0.00 0.000
7:44am 93 0 8 35 87 72.8 51.5 29.88 11.52 0.00 0.00 0.00 0.000
7:45am 92 0 8 35 87 72.8 51.5 29.88 11.52 0.00 0.00 0.00 0.000
7:46am 95 0 1 35 87 72.8 51.5 29.88 11.52 0.00 0.00 0.00 0.000
7:47am 95 0 1 35 87 72.8 51.5 29.88 11.52 0.00 0.00 0.00 0.000
7:48am 128 0 1 35 87 72.8 51.5 29.88 11.52 0.00 0.00 0.00 0.000
7:49am 174 3 3 35 87 72.8 51.5 29.88 11.52 0.00 0.00 0.00 0.000
7:50am 186 4 7 35 87 72.8 51.5 29.88 11.52 0.00 0.00 0.00 0.000
7:51am 191 4 7 35 87 72.8 51.6 29.88 11.52 0.00 0.00 0.00 0.000
7:52am 169 3 7 35 87 72.8 51.5 29.88 11.52 0.00 0.00 0.00 0.000
7:53am 192 7 7 35 87 72.8 51.5 29.88 11.52 0.00 0.00 0.00 0.000
7:54am 161 3 7 35 87 72.8 51.5 29.88 11.52 0.00 0.00 0.00 0.000
7:55am 163 0 7 35 87 72.8 51.5 29.88 11.52 0.00 0.00 0.00 0.000
7:56am 163 0 7 35 87 72.8 51.5 29.89 11.52 0.00 0.00 0.00 0.000
7:57am 182 1 7 35 87 72.8 51.6 29.89 11.52 0.00 0.00 0.00 0.000
7:58am 182 2 7 35 87 72.8 51.6 29.89 11.52 0.00 0.00 0.00 0.000
7:59am 182 0 7 35 87 72.8 51.6 29.89 11.52 0.00 0.00 0.00 0.000
8:00am 182 0 7 35 87 72.8 51.6 29.89 11.52 0.00 0.00 0.00 0.000
8:01am 182 0 0 35 87 72.8 51.6 29.89 11.52 0.00 0.00 0.00 0.000
8:02am 182 0 0 35 87 72.8 51.6 29.89 11.52 0.00 0.00 0.00 0.000
8:03am 182 0 0 35 87 72.8 51.6 29.89 11.52 0.00 0.00 0.00 0.000
8:04am 182 2 2 35 87 72.8 51.7 29.89 11.52 0.00 0.00 0.00 0.000
8:05am 182 0 3 35 87 72.8 51.7 29.89 11.52 0.00 0.00 0.00 0.000
8:06am 182 0 3 35 87 72.8 51.7 29.89 11.52 0.00 0.00 0.00 0.000
8:07am 182 0 3 35 87 72.8 51.7 29.89 11.52 0.00 0.00 0.00 0.000
8:08am 182 0 3 35 87 72.8 51.7 29.89 11.52 0.00 0.00 0.00 0.000
8:09am 182 0 3 35 87 72.8 51.7 29.89 11.52 0.00 0.00 0.00 0.000
8:10am 182 0 3 35 87 72.8 51.7 29.90 11.52 0.00 0.00 0.00 0.000
8:11am 157 3 3 35 87 72.8 51.8 29.90 11.52 0.00 0.00 0.00 0.000
8:12am 157 0 3 35 87 72.8 51.8 29.90 11.52 0.00 0.00 0.00 0.000
8:13am 183 3 3 35 87 72.8 51.8 29.90 11.52 0.00 0.00 0.00 0.000
8:14am 183 2 3 35 87 72.8 51.8 29.90 11.52 0.00 0.00 0.00 0.000
8:15am 184 4 4 35 87 72.8 51.8 29.89 11.52 0.00 0.00 0.00 0.000
8:16am 174 3 4 35 87 72.8 51.8 29.90 11.52 0.00 0.00 0.00 0.000
8:17am 174 2 4 35 87 72.8 51.8 29.90 11.52 0.00 0.00 0.00 0.000
8:18am 174 3 4 35 87 72.8 51.8 29.90 11.52 0.00 0.00 0.00 0.000
8:19am 155 5 5 35 87 72.8 51.8 29.89 11.52 0.00 0.00 0.00 0.000
8:20am 172 4 5 35 87 72.7 51.8 29.89 11.52 0.00 0.00 0.00 0.000
8:21am 158 6 6 35 87 72.7 51.8 29.89 11.52 0.00 0.00 0.00 0.000
8:22am 173 2 7 35 87 72.7 51.8 29.89 11.52 0.00 0.00 0.00 0.000
8:23am 162 2 7 35 87 72.7 51.7 29.89 11.52 0.00 0.00 0.00 0.000
8:24am 176 4 7 35 87 72.7 51.7 29.89 11.52 0.00 0.00 0.00 0.000
8:25am 178 3 7 35 87 72.7 51.7 29.89 11.52 0.00 0.00 0.00 0.000
8:26am 181 5 7 35 87 72.7 51.7 29.89 11.52 0.00 0.00 0.00 0.000
8:27am 180 3 7 35 87 72.7 51.7 29.89 11.52 0.00 0.00 0.00 0.000
8:28am 160 3 7 35 87 72.7 51.7 29.89 11.52 0.00 0.00 0.00 0.000
8:29am 162 0 7 35 87 72.7 51.7 29.89 11.52 0.00 0.00 0.00 0.000
8:30am 163 2 7 35 87 72.7 51.7 29.89 11.52 0.00 0.00 0.00 0.000
8:31am 148 1 3 35 87 72.7 51.7 29.90 11.52 0.00 0.00 0.00 0.000
8:31am 149 0 3 35 87 72.7 51.7 29.90 11.52 0.00 0.00 0.00 0.000
8:33am 118 2 3 35 87 72.7 51.8 29.90 11.52 0.00 0.00 0.00 0.000
8:34am 118 0 3 35 88 72.7 51.8 29.90 11.52 0.00 0.00 0.00 0.000
8:35am 132 1 3 35 88 72.7 51.8 29.89 11.52 0.00 0.00 0.00 0.000
8:36am 140 2 3 35 88 72.7 51.8 29.90 11.52 0.00 0.00 0.00 0.000
8:37am 154 0 3 35 88 72.7 51.8 29.89 11.52 0.00 0.00 0.00 0.000
8:38am 154 0 3 35 88 72.7 51.9 29.89 11.52 0.00 0.00 0.00 0.000
8:39am 154 0 3 35 88 72.7 51.9 29.89 11.52 0.00 0.00 0.00 0.000
8:40am 154 1 3 35 88 72.7 51.9 29.89 11.52 0.00 0.00 0.00 0.000
8:41am 154 1 3 35 88 72.7 52.0 29.89 11.52 0.00 0.00 0.00 0.000
8:42am 159 1 3 35 88 72.7 52.0 29.89 11.52 0.00 0.00 0.00 0.000
8:43am 159 2 3 35 88 72.7 52.0 29.89 11.52 0.00 0.00 0.00 0.000
8:44am 159 1 3 35 88 72.7 52.0 29.89 11.52 0.00 0.00 0.00 0.000
8:45am 159 0 3 35 88 72.7 52.0 29.89 11.52 0.00 0.00 0.00 0.000
8:46am 159 0 1 35 88 72.7 52.1 29.89 11.52 0.00 0.00 0.00 0.000
8:47am 159 0 1 35 88 72.7 52.1 29.89 11.52 0.00 0.00 0.00 0.000
8:48am 159 0 1 35 88 72.7 52.1 29.89 11.52 0.00 0.00 0.00 0.000
8:49am 159 0 1 35 88 72.7 52.1 29.89 11.52 0.00 0.00 0.00 0.000
8:50am 159 0 3 35 88 72.7 52.1 29.89 11.52 0.00 0.00 0.00 0.000
8:51am 172 3 5 35 88 72.7 52.1 29.89 11.52 0.00 0.00 0.00 0.000
8:52am 178 3 5 35 88 72.7 52.1 29.89 11.52 0.00 0.00 0.00 0.000
8:53am 160 0 5 35 88 72.7 52.2 29.89 11.52 0.00 0.00 0.00 0.000
8:54am 161 2 5 35 88 72.7 52.2 29.89 11.52 0.00 0.00 0.00 0.000
8:55am 162 0 5 35 88 72.7 52.2 29.89 11.52 0.00 0.00 0.00 0.000
8:56am 162 1 5 35 88 72.7 52.2 29.89 11.52 0.00 0.00 0.00 0.000
8:57am 202 4 5 35 88 72.7 52.2 29.89 11.52 0.00 0.00 0.00 0.000
8:58am 199 3 5 35 88 72.7 52.2 29.89 11.52 0.00 0.00 0.00 0.000
8:59am 199 1 5 35 88 72.7 52.2 29.89 11.52 0.00 0.00 0.00 0.000
9:00am 195 0 5 35 88 72.7 52.2 29.89 11.52 0.00 0.00 0.00 0.000
9:01am 196 2 3 35 88 72.7 52.2 29.89 11.52 0.00 0.00 0.00 0.000
9:02am 196 1 3 35 88 72.7 52.2 29.90 11.52 0.00 0.00 0.00 0.000
9:03am 196 0 3 35 88 72.7 52.2 29.90 11.52 0.00 0.00 0.00 0.000
9:04am 205 3 4 35 88 72.5 52.2 29.89 11.52 0.00 0.00 0.00 0.000
9:05am 202 3 4 35 88 72.5 52.2 29.89 11.52 0.00 0.00 0.00 0.000
9:06am 202 1 4 36 88 72.5 52.2 29.89 11.52 0.00 0.00 0.00 0.000
9:07am 202 1 4 36 88 72.5 52.2 29.89 11.52 0.00 0.00 0.00 0.000
9:08am 202 1 4 36 88 72.5 52.2 29.89 11.52 0.00 0.00 0.00 0.000
9:09am 202 0 4 36 88 72.5 52.2 29.89 11.52 0.00 0.00 0.00 0.000
9:10am 202 3 4 36 88 72.5 52.2 29.89 11.52 0.00 0.00 0.00 0.000
9:11am 202 1 4 36 88 72.5 52.2 29.89 11.52 0.00 0.00 0.00 0.000
9:12am 202 0 4 36 88 72.5 52.2 29.89 11.52 0.00 0.00 0.00 0.000
9:13am 202 0 4 36 88 72.5 52.2 29.89 11.52 0.00 0.00 0.00 0.000
9:14am 202 1 4 36 88 72.5 52.2 29.89 11.52 0.00 0.00 0.00 0.000
9:15am 202 0 4 36 88 72.5 52.2 29.89 11.52 0.00 0.00 0.00 0.000
9:16am 202 2 2 36 88 72.5 52.2 29.89 11.52 0.00 0.00 0.00 0.000
9:17am 202 3 3 36 88 72.5 52.3 29.89 11.52 0.00 0.00 0.00 0.000
9:18am 202 2 3 36 88 72.5 52.3 29.89 11.52 0.00 0.00 0.00 0.000
9:19am 202 0 3 36 88 72.5 52.3 29.89 11.52 0.00 0.00 0.00 0.000
9:19am 202 2 3 36 88 72.5 52.3 29.89 11.52 0.00 0.00 0.00 0.000
9:21am 201 2 3 36 88 72.5 52.3 29.89 11.52 0.00 0.00 0.00 0.000
9:22am 190 2 3 36 88 72.5 52.3 29.89 11.52 0.00 0.00 0.00 0.000
9:23am 190 0 3 36 88 72.5 52.3 29.89 11.52 0.00 0.00 0.00 0.000
9:23am 190 0 3 36 88 72.5 52.2 29.89 11.52 0.00 0.00 0.00 0.000
9:25am 190 0 3 36 88 72.5 52.2 29.89 11.52 0.00 0.00 0.00 0.000
9:26am 190 0 3 36 88 72.5 52.2 29.89 11.52 0.00 0.00 0.00 0.000
9:27am 190 0 3 36 88 72.5 52.2 29.89 11.52 0.00 0.00 0.00 0.000
9:28am 190 0 3 36 88 72.5 52.2 29.89 11.52 0.00 0.00 0.00 0.000
9:29am 190 0 3 36 88 72.5 52.2 29.89 11.52 0.00 0.00 0.00 0.000
9:30am 190 0 3 36 88 72.5 52.2 29.89 11.52 0.00 0.00 0.00 0.000
9:31am 190 0 0 36 88 72.5 52.3 29.89 11.52 0.00 0.00 0.00 0.000
9:32am 190 0 0 36 88 72.5 52.3 29.88 11.52 0.00 0.00 0.00 0.000
9:33am 190 0 0 36 88 72.5 52.3 29.88 11.52 0.00 0.00 0.00 0.000
9:34am 190 1 1 36 88 72.5 52.4 29.88 11.52 0.00 0.00 0.00 0.000
9:35am 190 2 2 36 88 72.5 52.4 29.88 11.52 0.00 0.00 0.00 0.000
9:36am 190 0 2 36 88 72.5 52.4 29.88 11.52 0.00 0.00 0.00 0.000
9:37am 190 0 2 36 88 72.5 52.4 29.88 11.52 0.00 0.00 0.00 0.000
9:38am 190 0 2 36 88 72.5 52.5 29.88 11.52 0.00 0.00 0.00 0.000
9:39am 190 0 2 36 88 72.5 52.5 29.88 11.52 0.00 0.00 0.00 0.000
9:40am 190 0 2 36 88 72.5 52.6 29.88 11.52 0.00 0.00 0.00 0.000
9:41am 190 0 2 36 88 72.5 52.6 29.88 11.52 0.00 0.00 0.00 0.000
9:42am 190 1 2 36 88 72.5 52.7 29.88 11.52 0.00 0.00 0.00 0.000
9:43am 190 2 2 36 88 72.5 52.7 29.88 11.52 0.00 0.00 0.00 0.000
9:44am 190 0 2 36 88 72.5 52.7 29.88 11.52 0.00 0.00 0.00 0.000
9:45am 190 0 2 36 88 72.5 52.7 29.88 11.52 0.00 0.00 0.00 0.000
9:46am 190 0 0 36 88 72.5 52.8 29.88 11.52 0.00 0.00 0.00 0.000
9:47am 190 0 0 36 88 72.5 52.7 29.88 11.52 0.00 0.00 0.00 0.000
9:48am 190 0 0 36 88 72.5 52.7 29.88 11.52 0.00 0.00 0.00 0.000
9:48am 190 0 0 36 88 72.5 52.7 29.88 11.52 0.00 0.00 0.00 0.000
9:50am 190 0 0 36 88 72.5 52.7 29.88 11.52 0.00 0.00 0.00 0.000
9:51am 190 0 0 36 88 72.5 52.7 29.88 11.52 0.00 0.00 0.00 0.000
9:52am 190 0 0 36 88 72.5 52.7 29.88 11.52 0.00 0.00 0.00 0.000
9:53am 190 0 0 36 88 72.5 52.7 29.88 11.52 0.00 0.00 0.00 0.000
9:54am 190 0 0 36 88 72.5 52.8 29.88 11.52 0.00 0.00 0.00 0.000
9:55am 190 0 0 36 88 72.5 52.8 29.88 11.52 0.00 0.00 0.00 0.000
9:56am 190 0 0 36 88 72.5 52.8 29.88 11.52 0.00 0.00 0.00 0.000
9:57am 190 0 0 36 88 72.5 52.8 29.88 11.52 0.00 0.00 0.00 0.000
9:58am 190 0 0 36 88 72.5 52.8 29.88 11.52 0.00 0.00 0.00 0.000
9:59am 190 0 0 36 88 72.5 52.8 29.88 11.52 0.00 0.00 0.00 0.000
10:00am 190 0 2 36 88 72.5 52.8 29.88 11.52 0.00 0.00 0.00 0.000
10:01am 190 1 3 36 88 72.5 52.8 29.88 11.52 0.00 0.00 0.00 0.000
10:02am 190 0 3 36 88 72.5 52.7 29.88 11.52 0.00 0.00 0.00 0.000
10:03am 190 0 3 36 88 72.5 52.7 29.88 11.52 0.00 0.00 0.00 0.000
10:04am 190 0 3 36 88 72.5 52.7 29.88 11.52 0.00 0.00 0.00 0.000
10:05am 190 0 3 36 88 72.5 52.7 29.88 11.52 0.00 0.00 0.00 0.000
10:06am 190 0 3 36 88 72.5 52.7 29.88 11.52 0.00 0.00 0.00 0.000
10:07am 190 0 3 36 88 72.5 52.7 29.88 11.52 0.00 0.00 0.00 0.000
10:08am 190 0 3 36 88 72.5 52.7 29.88 11.52 0.00 0.00 0.00 0.000
10:09am 190 0 3 36 88 72.5 52.7 29.88 11.52 0.00 0.00 0.00 0.000
10:10am 190 0 3 36 88 72.5 52.7 29.88 11.52 0.00 0.00 0.00 0.000
10:11am 190 0 3 36 88 72.5 52.7 29.88 11.52 0.00 0.00 0.00 0.000
10:12am 190 0 3 36 88 72.5 52.8 29.88 11.52 0.00 0.00 0.00 0.000
10:13am 190 0 3 36 88 72.5 52.8 29.88 11.52 0.00 0.00 0.00 0.000
10:14am 190 0 3 36 88 72.5 52.8 29.88 11.52 0.00 0.00 0.00 0.000
10:15am 190 0 3 36 88 72.5 52.8 29.88 11.52 0.00 0.00 0.00 0.000
10:16am 190 0 0 36 88 72.5 52.8 29.88 11.52 0.00 0.00 0.00 0.000
10:17am 190 0 0 36 88 72.5 52.8 29.88 11.52 0.00 0.00 0.00 0.000
10:18am 190 0 0 36 88 72.5 52.8 29.88 11.52 0.00 0.00 0.00 0.000
10:19am 190 1 3 36 88 72.5 52.8 29.88 11.52 0.00 0.00 0.00 0.000
10:20am 164 2 3 36 88 72.5 52.8 29.88 11.52 0.00 0.00 0.00 0.000
10:21am 118 2 3 36 88 72.5 52.7 29.88 11.52 0.00 0.00 0.00 0.000
10:22am 118 3 3 36 88 72.5 52.7 29.88 11.52 0.00 0.00 0.00 0.000
10:23am 79 2 3 36 88 72.5 52.7 29.88 11.52 0.00 0.00 0.00 0.000
10:24am 80 1 3 36 88 72.5 52.7 29.88 11.52 0.00 0.00 0.00 0.000
10:25am 80 0 3 36 88 72.5 52.6 29.88 11.52 0.00 0.00 0.00 0.000
10:26am 80 0 3 36 88 72.5 52.6 29.88 11.52 0.00 0.00 0.00 0.000
10:27am 84 0 3 36 88 72.5 52.7 29.88 11.52 0.00 0.00 0.00 0.000
10:27am 84 0 3 36 88 72.5 52.7 29.88 11.52 0.00 0.00 0.00 0.000
10:29am 84 1 3 36 88 72.5 52.7 29.88 11.52 0.00 0.00 0.00 0.000
10:30am 84 0 3 36 88 72.5 52.7 29.88 11.52 0.00 0.00 0.00 0.000
10:31am 76 1 2 36 88 72.5 52.7 29.88 11.52 0.00 0.00 0.00 0.000
10:31am 81 2 4 36 88 72.5 52.7 29.88 11.52 0.00 0.00 0.00 0.000
10:33am 97 3 4 36 88 72.5 52.7 29.88 11.52 0.00 0.00 0.00 0.000
10:34am 94 2 4 36 88 72.5 52.7 29.88 11.52 0.00 0.00 0.00 0.000
10:35am 85 4 4 36 88 72.5 52.6 29.88 11.52 0.00 0.00 0.00 0.000
10:36am 87 1 4 36 88 72.5 52.6 29.88 11.52 0.00 0.00 0.00 0.000
10:37am 87 0 4 36 88 72.5 52.6 29.88 11.52 0.00 0.00 0.00 0.000
10:38am 87 0 4 36 88 72.5 52.6 29.88 11.52 0.00 0.00 0.00 0.000
10:39am 92 2 4 36 88 72.5 52.7 29.88 11.52 0.00 0.00 0.00 0.000
10:40am 92 0 4 36 88 72.5 52.7 29.88 11.52 0.00 0.00 0.00 0.000
10:41am 92 0 4 36 88 72.5 52.7 29.88 11.52 0.00 0.00 0.00 0.000
10:42am 92 1 4 36 88 72.5 52.7 29.88 11.52 0.00 0.00 0.00 0.000
10:43am 118 2 4 36 88 72.5 52.8 29.88 11.52 0.00 0.00 0.00 0.000
10:44am 175 3 4 36 88 72.5 52.8 29.88 11.52 0.00 0.00 0.00 0.000
10:45am 175 2 4 36 88 72.5 52.9 29.88 11.52 0.00 0.00 0.00 0.000
10:46am 175 1 2 36 88 72.5 52.8 29.88 11.52 0.00 0.00 0.00 0.000
10:47am 175 0 2 36 88 72.5 52.8 29.88 11.52 0.00 0.00 0.00 0.000
10:48am 175 2 2 36 88 72.5 52.8 29.88 11.52 0.00 0.00 0.00 0.000
10:49am 222 1 3 36 88 72.5 52.8 29.88 11.52 0.00 0.00 0.00 0.000
10:50am 224 0 3 36 88 72.5 52.8 29.88 11.52 0.00 0.00 0.00 0.000
10:51am 217 0 3 36 88 72.5 52.8 29.88 11.52 0.00 0.00 0.00 0.000
10:52am 217 0 3 36 88 72.5 52.8 29.88 11.52 0.00 0.00 0.00 0.000
10:53am 217 0 3 36 88 72.5 52.8 29.88 11.52 0.00 0.00 0.00 0.000
10:54am 217 0 3 36 88 72.5 52.8 29.88 11.52 0.00 0.00 0.00 0.000
10:55am 224 0 3 36 88 72.5 52.9 29.88 11.52 0.00 0.00 0.00 0.000
10:56am 225 0 3 36 88 72.5 52.8 29.88 11.52 0.00 0.00 0.00 0.000
10:57am 226 0 3 36 88 72.5 52.9 29.88 11.52 0.00 0.00 0.00 0.000
10:58am 226 0 3 36 88 72.5 52.8 29.88 11.52 0.00 0.00 0.00 0.000
10:59am 226 0 3 36 88 72.5 52.8 29.88 11.52 0.00 0.00 0.00 0.000
11:00am 226 0 3 36 88 72.7 52.8 29.88 11.52 0.00 0.00 0.00 0.000
11:01am 226 0 0 36 88 72.7 52.8 29.88 11.52 0.00 0.00 0.00 0.000
11:02am 225 0 0 36 88 72.7 52.9 29.88 11.52 0.00 0.00 0.00 0.000
11:03am 225 1 2 36 88 72.7 52.9 29.88 11.52 0.00 0.00 0.00 0.000
11:04am 226 0 2 36 88 72.7 52.9 29.88 11.52 0.00 0.00 0.00 0.000
11:05am 226 1 2 36 88 72.7 53.0 29.88 11.52 0.00 0.00 0.00 0.000
11:06am 226 0 2 36 88 72.7 53.0 29.88 11.52 0.00 0.00 0.00 0.000
11:07am 226 0 2 36 88 72.7 53.1 29.88 11.52 0.00 0.00 0.00 0.000
11:08am 225 0 2 36 88 72.7 53.1 29.88 11.52 0.00 0.00 0.00 0.000
11:09am 225 0 2 36 88 72.7 53.2 29.88 11.52 0.00 0.00 0.00 0.000
11:10am 226 0 2 36 88 72.7 53.2 29.88 11.52 0.00 0.00 0.00 0.000
11:11am 226 0 2 36 88 72.7 53.2 29.88 11.52 0.00 0.00 0.00 0.000
11:12am 226 0 2 36 88 72.7 53.2 29.88 11.52 0.00 0.00 0.00 0.000
11:13am 141 3 3 36 88 72.7 53.3 29.88 11.52 0.00 0.00 0.00 0.000
11:14am 161 3 4 36 88 72.7 53.3 29.88 11.52 0.00 0.00 0.00 0.000
11:15am 161 1 4 36 88 72.7 53.3 29.87 11.52 0.00 0.00 0.00 0.000
11:16am 162 1 3 36 88 72.7 53.3 29.87 11.52 0.00 0.00 0.00 0.000
11:17am 161 1 3 36 88 72.7 53.4 29.88 11.52 0.00 0.00 0.00 0.000
11:18am 175 1 3 36 88 72.7 53.4 29.88 11.52 0.00 0.00 0.00 0.000
11:19am 176 1 4 36 88 72.7 53.4 29.87 11.52 0.00 0.00 0.00 0.000
11:20am 176 0 4 36 88 72.7 53.4 29.87 11.52 0.00 0.00 0.00 0.000
11:21am 175 0 4 36 88 72.7 53.5 29.87 11.52 0.00 0.00 0.00 0.000
11:22am 175 0 4 36 88 72.7 53.5 29.87 11.52 0.00 0.00 0.00 0.000
11:23am 175 0 4 36 88 72.7 53.6 29.88 11.52 0.00 0.00 0.00 0.000
11:24am 176 0 4 36 88 72.7 53.6 29.87 11.52 0.00 0.00 0.00 0.000
11:25am 176 0 4 36 88 72.7 53.6 29.87 11.52 0.00 0.00 0.00 0.000
11:26am 176 0 4 36 88 72.7 53.6 29.87 11.52 0.00 0.00 0.00 0.000
11:27am 176 0 4 36 88 72.7 53.7 29.87 11.52 0.00 0.00 0.00 0.000
11:28am 176 0 4 36 88 72.7 53.7 29.87 11.52 0.00 0.00 0.00 0.000
11:29am 175 0 4 36 88 72.7 53.8 29.87 11.52 0.00 0.00 0.00 0.000
11:30am 90 2 4 36 88 72.7 53.8 29.87 11.52 0.00 0.00 0.00 0.000
11:31am 78 0 3 36 88 72.7 53.8 29.87 11.52 0.00 0.00 0.00 0.000
11:32am 78 2 3 36 88 72.7 53.8 29.87 11.52 0.00 0.00 0.00 0.000
11:33am 76 3 4 36 88 72.7 53.8 29.87 11.52 0.00 0.00 0.00 0.000
11:34am 106 4 4 36 88 72.7 53.7 29.87 11.52 0.00 0.00 0.00 0.000
11:35am 106 2 4 36 88 72.7 53.7 29.87 11.52 0.00 0.00 0.00 0.000
11:36am 105 0 4 36 88 72.7 53.8 29.87 11.52 0.00 0.00 0.00 0.000
11:37am 105 0 4 36 88 72.7 53.8 29.87 11.52 0.00 0.00 0.00 0.000
11:38am 69 2 4 36 88 72.7 53.8 29.87 11.52 0.00 0.00 0.00 0.000
11:39am 252 2 8 36 88 72.7 53.8 29.87 11.52 0.00 0.00 0.00 0.000
11:40am 228 5 8 36 88 72.7 53.9 29.87 11.52 0.00 0.00 0.00 0.000
11:41am 228 0 8 36 88 72.7 53.9 29.87 11.52 0.00 0.00 0.00 0.000
11:42am 228 0 8 36 88 72.7 53.9 29.87 11.52 0.00 0.00 0.00 0.000
11:43am 228 0 8 36 88 72.7 54.0 29.87 11.52 0.00 0.00 0.00 0.000
11:44am 228 0 8 36 88 72.7 54.0 29.87 11.52 0.00 0.00 0.00 0.000
11:45am 228 0 8 36 87 72.7 54.0 29.87 11.52 0.00 0.00 0.00 0.000
11:46am 228 1 1 36 87 72.7 54.0 29.87 11.52 0.00 0.00 0.00 0.000
11:47am 228 0 1 36 87 72.7 54.1 29.87 11.52 0.00 0.00 0.00 0.000
11:48am 228 0 1 36 87 72.8 54.1 29.87 11.52 0.00 0.00 0.00 0.000
11:49am 228 0 1 36 87 72.8 54.2 29.87 11.52 0.00 0.00 0.00 0.000
11:50am 228 0 1 36 87 72.8 54.2 29.87 11.52 0.00 0.00 0.00 0.000
11:51am 226 2 4 36 87 72.8 54.2 29.87 11.52 0.00 0.00 0.00 0.000
11:52am 226 0 4 36 87 72.8 54.2 29.87 11.52 0.00 0.00 0.00 0.000
11:53am 227 0 4 36 87 72.8 54.3 29.87 11.52 0.00 0.00 0.00 0.000
11:54am 227 0 4 36 87 72.8 54.3 29.87 11.52 0.00 0.00 0.00 0.000
11:55am 227 0 4 36 87 72.8 54.3 29.87 11.52 0.00 0.00 0.00 0.000
11:56am 226 0 4 36 87 72.8 54.4 29.87 11.52 0.00 0.00 0.00 0.000
11:57am 226 2 4 36 87 72.8 54.4 29.86 11.52 0.00 0.00 0.00 0.000
11:58am 226 2 4 36 87 72.8 54.4 29.86 11.52 0.00 0.00 0.00 0.000
11:59am 226 3 4 36 87 72.8 54.4 29.86 11.52 0.00 0.00 0.00 0.000
12:00pm 228 2 4 37 87 72.8 54.4 29.86 11.52 0.00 0.00 0.00 0.000
12:01pm 228 0 2 37 87 72.8 54.5 29.86 11.52 0.00 0.00 0.00 0.000
12:02pm 228 0 2 37 87 72.8 54.5 29.86 11.52 0.00 0.00 0.00 0.000
12:03pm 228 0 2 37 87 72.8 54.5 29.86 11.52 0.00 0.00 0.00 0.000
12:04pm 228 0 2 37 87 72.8 54.6 29.86 11.52 0.00 0.00 0.00 0.000
12:05pm 228 0 2 37 87 72.8 54.7 29.86 11.52 0.00 0.00 0.00 0.000
12:06pm 228 0 2 37 87 72.8 54.7 29.86 11.52 0.00 0.00 0.00 0.000
12:06pm 227 0 2 37 87 72.8 54.8 29.86 11.52 0.00 0.00 0.00 0.000
12:08pm 227 0 2 36 87 72.8 54.9 29.86 11.52 0.00 0.00 0.00 0.000
12:09pm 227 0 2 36 87 72.8 54.9 29.86 11.52 0.00 0.00 0.00 0.000
12:10pm 226 0 2 36 90 72.8 55.0 29.86 11.52 0.00 0.00 0.00 0.000
12:11pm 226 0 2 36 87 72.8 55.1 29.86 11.52 0.00 0.00 0.00 0.000
12:12pm 226 0 2 36 87 72.8 55.2 29.86 11.52 0.00 0.00 0.00 0.000
12:13pm 226 0 2 36 87 72.8 55.3 29.86 11.52 0.00 0.00 0.00 0.000
12:14pm 227 0 2 36 87 72.8 55.4 29.85 11.52 0.00 0.00 0.00 0.000
12:15pm 227 0 2 36 87 72.8 55.5 29.85 11.52 0.00 0.00 0.00 0.000
12:16pm 226 0 0 36 87 72.8 55.6 29.85 11.52 0.00 0.00 0.00 0.000
12:17pm 226 0 0 36 87 72.8 55.7 29.85 11.52 0.00 0.00 0.00 0.000
12:18pm 226 0 1 36 87 73.0 55.8 29.85 11.52 0.00 0.00 0.00 0.000
12:19pm 236 0 1 36 87 73.0 55.9 29.85 11.52 0.00 0.00 0.00 0.000
12:20pm 228 0 2 36 87 73.0 56.0 29.85 11.52 0.00 0.00 0.00 0.000
12:21pm 228 0 2 36 87 73.0 56.0 29.85 11.52 0.00 0.00 0.00 0.000
12:22pm 202 0 3 36 87 73.0 56.1 29.85 11.52 0.00 0.00 0.00 0.000
12:23pm 215 3 7 36 87 73.0 56.1 29.85 11.52 0.00 0.00 0.00 0.000
12:24pm 186 4 7 36 87 73.0 56.1 29.85 11.52 0.00 0.00 0.00 0.000
12:25pm 228 1 7 36 87 73.0 56.1 29.85 11.52 0.00 0.00 0.00 0.000
12:26pm 228 0 7 36 87 73.0 56.2 29.85 11.52 0.00 0.00 0.00 0.000
12:27pm 230 2 7 36 87 73.0 56.2 29.85 11.52 0.00 0.00 0.00 0.000
12:27pm 229 1 7 36 87 73.0 56.2 29.85 11.52 0.00 0.00 0.00 0.000
12:29pm 229 1 7 36 87 73.0 56.3 29.85 11.52 0.00 0.00 0.00 0.000
12:30pm 229 0 7 36 86 73.0 56.3 29.85 11.52 0.00 0.00 0.00 0.000
12:31pm 229 0 1 36 86 73.0 56.3 29.85 11.52 0.00 0.00 0.00 0.000
12:32pm 230 4 4 36 86 73.0 56.4 29.85 11.52 0.00 0.00 0.00 0.000
12:33pm 230 1 4 36 86 73.0 56.3 29.84 11.52 0.00 0.00 0.00 0.000
12:34pm 233 7 7 36 86 73.0 56.3 29.84 11.52 0.00 0.00 0.00 0.000
12:35pm 226 2 7 36 86 73.0 56.3 29.84 11.52 0.00 0.00 0.00 0.000
12:36pm 246 3 7 36 86 73.0 56.3 29.84 11.52 0.00 0.00 0.00 0.000
12:37pm 244 2 7 36 85 73.0 56.3 29.85 11.52 0.00 0.00 0.00 0.000
12:38pm 228 1 7 36 85 73.0 56.3 29.84 11.52 0.00 0.00 0.00 0.000
12:39pm 224 2 7 36 85 73.0 56.3 29.84 11.52 0.00 0.00 0.00 0.000
12:39pm 205 2 7 36 85 73.0 56.3 29.84 11.52 0.00 0.00 0.00 0.000
12:41pm 227 1 7 36 85 73.0 56.4 29.85 11.52 0.00 0.00 0.00 0.000
12:42pm 227 2 7 36 85 73.0 56.4 29.85 11.52 0.00 0.00 0.00 0.000
12:43pm 205 3 7 36 85 73.2 56.5 29.84 11.52 0.00 0.00 0.00 0.000
12:44pm 249 4 7 36 85 73.2 56.5 29.84 11.52 0.00 0.00 0.00 0.000
12:45pm 237 3 7 36 85 73.2 56.5 29.84 11.52 0.00 0.00 0.00 0.000
12:46pm 209 0 4 36 85 73.2 56.5 29.84 11.52 0.00 0.00 0.00 0.000
12:47pm 209 1 4 36 85 73.2 56.6 29.84 11.52 0.00 0.00 0.00 0.000
12:48pm 209 0 4 36 84 73.2 56.6 29.84 11.52 0.00 0.00 0.00 0.000
12:49pm 209 0 4 36 84 73.2 56.6 29.84 11.52 0.00 0.00 0.00 0.000
12:50pm 209 0 4 36 84 73.2 56.6 29.84 11.52 0.00 0.00 0.00 0.000
12:51pm 307 0 4 36 84 73.2 56.6 29.84 11.52 0.00 0.00 0.00 0.000
12:52pm 307 0 4 36 84 73.2 56.6 29.84 11.52 0.00 0.00 0.00 0.000
12:53pm 307 0 4 36 84 73.2 56.6 29.85 11.52 0.00 0.00 0.00 0.000
12:54pm 307 0 4 36 84 73.2 56.7 29.85 11.52 0.00 0.00 0.00 0.000
12:55pm 307 0 4 36 83 73.2 56.7 29.85 11.52 0.00 0.00 0.00 0.000
12:56pm 307 0 4 36 83 73.2 56.7 29.84 11.52 0.00 0.00 0.00 0.000
12:56pm 62 0 4 36 83 73.2 56.7 29.84 11.52 0.00 0.00 0.00 0.000
12:58pm 236 2 6 36 83 73.2 56.8 29.84 11.52 0.00 0.00 0.00 0.000
12:59pm 236 0 6 36 83 73.3 56.9 29.84 11.52 0.00 0.00 0.00 0.000
1:00pm 229 1 6 36 83 73.3 56.9 29.84 11.52 0.00 0.00 0.00 0.000
1:01pm 184 0 4 36 83 73.3 57.0 29.84 11.52 0.00 0.00 0.00 0.000
1:02pm 215 3 5 36 83 73.3 57.0 29.84 11.52 0.00 0.00 0.00 0.000
1:03pm 211 2 7 36 83 73.3 57.1 29.84 11.52 0.00 0.00 0.00 0.000
1:04pm 211 0 7 36 83 73.3 57.1 29.84 11.52 0.00 0.00 0.00 0.000
1:05pm 211 0 7 36 82 73.3 57.2 29.84 11.52 0.00 0.00 0.00 0.000
1:06pm 211 3 7 36 82 73.3 57.2 29.85 11.52 0.00 0.00 0.00 0.000
1:06pm 212 0 7 36 82 73.3 57.3 29.84 11.52 0.00 0.00 0.00 0.000
1:08pm 212 1 7 36 82 73.3 57.4 29.84 11.52 0.00 0.00 0.00 0.000
1:08pm 213 4 7 36 82 73.3 57.4 29.84 11.52 0.00 0.00 0.00 0.000
1:10pm 249 4 7 36 82 73.3 57.5 29.84 11.52 0.00 0.00 0.00 0.000
1:11pm 216 4 7 36 81 73.3 57.5 29.84 11.52 0.00 0.00 0.00 0.000
1:12pm 201 6 7 36 81 73.3 57.6 29.84 11.52 0.00 0.00 0.00 0.000
1:13pm 201 5 7 36 81 73.3 57.6 29.84 11.52 0.00 0.00 0.00 0.000
1:14pm 223 2 9 36 81 73.5 57.8 29.84 11.52 0.00 0.00 0.00 0.000
1:14pm 235 5 9 36 81 73.5 57.9 29.84 11.52 0.00 0.00 0.00 0.000
1:16pm 203 6 8 36 81 73.5 57.9 29.84 11.52 0.00 0.00 0.00 0.000
1:17pm 211 2 8 36 81 73.5 58.0 29.84 11.52 0.00 0.00 0.00 0.000
1:18pm 215 1 8 36 81 73.5 58.1 29.84 11.52 0.00 0.00 0.00 0.000
1:19pm 218 4 8 36 81 73.5 58.2 29.84 11.52 0.00 0.00 0.00 0.000
1:20pm 204 7 11 36 81 73.5 58.3 29.84 11.52 0.00 0.00 0.00 0.000
1:21pm 211 4 11 36 80 73.5 58.4 29.84 11.52 0.00 0.00 0.00 0.000
1:22pm 226 2 11 36 80 73.5 58.4 29.84 11.52 0.00 0.00 0.00 0.000
1:23pm 205 3 11 36 79 73.5 58.5 29.84 11.52 0.00 0.00 0.00 0.000
1:24pm 199 4 11 36 79 73.5 58.5 29.84 11.52 0.00 0.00 0.00 0.000
1:25pm 195 10 11 36 79 73.5 58.7 29.84 11.52 0.00 0.00 0.00 0.000
1:26pm 203 7 11 36 79 73.5 58.7 29.84 11.52 0.00 0.00 0.00 0.000
1:27pm 207 2 11 36 78 73.5 58.7 29.84 11.52 0.00 0.00 0.00 0.000
1:28pm 309 1 11 36 77 73.5 58.7 29.84 11.52 0.00 0.00 0.00 0.000
1:29pm 240 3 11 36 77 73.7 58.7 29.84 11.52 0.00 0.00 0.00 0.000
1:30pm 201 3 11 36 77 73.7 58.8 29.84 11.52 0.00 0.00 0.00 0.000
1:31pm 184 9 9 36 77 73.7 58.8 29.84 11.52 0.00 0.00 0.00 0.000
1:32pm 201 1 10 36 76 73.7 58.8 29.84 11.52 0.00 0.00 0.00 0.000
1:33pm 200 2 10 36 76 73.7 58.8 29.84 11.52 0.00 0.00 0.00 0.000
1:34pm 198 0 10 36 75 73.7 58.9 29.84 11.52 0.00 0.00 0.00 0.000
1:35pm 230 2 10 36 75 73.7 58.9 29.84 11.52 0.00 0.00 0.00 0.000
1:36pm 191 5 10 36 75 73.7 59.0 29.84 11.52 0.00 0.00 0.00 0.000
1:37pm 211 4 10 36 75 73.7 59.1 29.84 11.52 0.00 0.00 0.00 0.000
1:38pm 241 6 10 36 75 73.7 59.2 29.84 11.52 0.00 0.00 0.00 0.000
1:39pm 242 4 10 36 75 73.7 59.3 29.83 11.52 0.00 0.00 0.00 0.000
1:40pm 175 7 10 36 74 73.7 59.3 29.84 11.52 0.00 0.00 0.00 0.000
1:41pm 248 5 10 36 74 73.7 59.3 29.83 11.52 0.00 0.00 0.00 0.000
1:42pm 235 6 10 36 74 73.7 59.3 29.84 11.52 0.00 0.00 0.00 0.000
1:43pm 228 0 10 36 73 73.7 59.3 29.83 11.52 0.00 0.00 0.00 0.000
1:44pm 228 0 10 36 73 73.7 59.3 29.83 11.52 0.00 0.00 0.00 0.000
1:45pm 228 1 10 36 73 73.7 59.3 29.83 11.52 0.00 0.00 0.00 0.000
1:46pm 236 2 6 36 73 73.7 59.3 29.83 11.52 0.00 0.00 0.00 0.000
1:47pm 307 2 6 36 73 73.9 59.4 29.83 11.52 0.00 0.00 0.00 0.000
1:48pm 236 4 6 36 73 73.9 59.5 29.83 11.52 0.00 0.00 0.00 0.000
1:49pm 199 5 6 36 73 73.9 59.6